Location: Eimen
(51.8766°N, 9.7806°E)
Time: 21:45:35
(UTC+00:00)

CZ-6A DEB - Visible Passes

Search period start: 18 November 2025 00:00
Search period end: 28 November 2025 00:00
Orbit: 829 x 894 km, 98.8° (Epoch: 17 November)

Date Brightness Start Highest point End Pass type
(mag) Time Alt. Az. Time Alt. Az. Time Alt. Az.
18 Nov ? 04:43:17 10° NNE 04:48:37 44° E 04:53:49 10° S visible
18 Nov ? 16:16:38 10° S 16:22:20 66° WSW 16:28:01 10° NNW visible
18 Nov ? 18:02:07 10° WSW 18:04:20 12° W 18:06:34 10° WNW visible
19 Nov ? 04:34:45 10° NNE 04:39:56 38° E 04:45:00 10° SSE visible
19 Nov ? 16:07:57 10° S 16:13:42 75° WSW 16:19:25 10° NNW visible
19 Nov ? 17:52:34 10° WSW 17:55:34 14° W 17:58:34 10° NW visible
20 Nov ? 04:26:14 10° NNE 04:31:14 33° E 04:36:07 10° SSE visible
20 Nov ? 06:07:01 10° N 06:12:21 48° WNW 06:17:35 10° SW visible
20 Nov ? 15:59:20 10° SSE 16:05:04 86° WSW 16:10:48 10° NNW visible
20 Nov ? 17:43:15 10° SW 17:46:49 17° W 17:50:23 10° NW visible
21 Nov ? 04:17:45 10° NNE 04:22:31 29° E 04:27:12 10° SSE visible
21 Nov ? 05:58:21 10° N 06:03:46 55° WNW 06:09:05 10° SW visible
21 Nov ? 17:34:03 10° SW 17:38:04 19° W 17:42:04 10° NW visible
22 Nov ? 04:09:18 10° NE 04:13:48 25° E 04:18:14 10° SE visible
22 Nov ? 05:49:41 10° N 05:55:11 63° WNW 06:00:33 10° SSW visible
22 Nov ? 17:24:58 10° SW 17:29:20 22° W 17:33:42 10° NW visible
23 Nov ? 04:00:53 10° NE 04:05:04 21° E 04:09:11 10° SE visible
23 Nov ? 05:41:02 10° NNE 05:46:35 72° WNW 05:52:00 10° SSW visible
23 Nov ? 17:15:57 10° SSW 17:20:37 26° W 17:25:17 10° NW visible
24 Nov ? 03:52:32 10° NE 03:56:19 19° E 04:00:03 10° SE visible
24 Nov ? 05:32:24 10° NNE 05:37:58 83° WNW 05:43:25 10° SSW visible
24 Nov ? 17:06:59 10° SSW 17:11:54 29° W 17:16:48 10° NNW visible
25 Nov ? 03:44:16 10° NE 03:47:34 16° E 03:50:49 10° ESE visible
25 Nov ? 05:23:47 10° NNE 05:29:21 86° ESE 05:34:47 10° SSW visible
25 Nov ? 16:58:05 10° SSW 17:03:12 34° W 17:08:18 10° NNW visible
26 Nov ? 03:36:08 10° NE 03:38:47 14° E 03:41:26 10° ESE visible
26 Nov ? 05:15:10 10° NNE 05:20:42 76° ESE 05:26:08 10° S visible
26 Nov ? 16:49:13 10° SSW 16:54:31 39° W 16:59:47 10° NNW visible
27 Nov ? 03:28:18 10° ENE 03:30:00 11° E 03:31:43 10° E visible
27 Nov ? 05:06:34 10° NNE 05:12:03 65° ESE 05:17:27 10° S visible
27 Nov ? 16:40:25 10° S 16:45:50 44° W 16:51:14 10° NNW visible
